This is the latest recevied weather packets stored in our database for station/object OK5TVR-5. If no packets are shown the sender has not sent any weather packets the latest 10 day(s).
| Time | Temp. | Humidity | Pressure | Rain* | Wind** | Luminosity | Snow |
|---|---|---|---|---|---|---|---|
| 1788264263 | 24.44° C | 44% | 1012.8 hPa | 0 mm | - | 289 W/m² | - |
| 1788263364 | 23.33° C | 44% | 1013.1 hPa | 0 mm | - | 249 W/m² | - |
| 1788262463 | 21.11° C | 49% | 1013.6 hPa | 0 mm | - | 52 W/m² | - |
| 1788261564 | 22.22° C | 47% | 1013.3 hPa | 0 mm | - | 264 W/m² | - |
| 1788260663 | 22.78° C | 44% | 1013.4 hPa | 0 mm | - | 163 W/m² | - |
| 1788259763 | 22.22° C | 47% | 1013.3 hPa | 0 mm | - | 270 W/m² | - |
| 1788258863 | 21.67° C | 50% | 1013.4 hPa | 0 mm | - | 264 W/m² | - |
| 1788257963 | 21.11° C | 52% | 1013.6 hPa | 0 mm | - | 217 W/m² | - |
| 1788257063 | 22.22° C | 57% | 1013.4 hPa | 0 mm | - | 282 W/m² | - |
| 1788256163 | 20.56° C | 55% | 1013.7 hPa | 0 mm | - | 254 W/m² | - |
| 1788255263 | 20.56° C | 57% | 1013.7 hPa | 0 mm | - | 243 W/m² | - |
| 1788254363 | 20.56° C | 58% | 1013.8 hPa | 0 mm | - | 118 W/m² | - |
| 1788253463 | 18.89° C | 59% | 1014 hPa | 0 mm | - | 88 W/m² | - |
| 1788252566 | 19.44° C | 58% | 1013.9 hPa | 0 mm | - | 212 W/m² | - |
| 1788251663 | 20° C | 61% | 1013.8 hPa | 0 mm | - | 116 W/m² | - |
| 1788250763 | 18.89° C | 61% | 1013.8 hPa | 0 mm | - | 154 W/m² | - |
| 1788249864 | 18.33° C | 66% | 1014.1 hPa | 0 mm | - | 95 W/m² | - |
| 1788248963 | 17.78° C | 68% | 1013.9 hPa | 0 mm | - | 108 W/m² | - |
| 1788248063 | 17.22° C | 68% | 1013.9 hPa | 0 mm | - | 82 W/m² | - |
| 1788247163 | 17.22° C | 71% | 1013.7 hPa | 0 mm | - | 90 W/m² | - |
| 1788246263 | 16.67° C | 72% | 1014 hPa | 0 mm | - | 72 W/m² | - |
| 1788245363 | 16.67° C | 74% | 1013.9 hPa | 0 mm | - | 50 W/m² | - |
| 1788244463 | 16.11° C | 76% | 1013.9 hPa | 0 mm | - | 60 W/m² | - |
| 1788243563 | 16.11° C | 80% | 1013.9 hPa | 0 mm | - | 55 W/m² | - |
| 1788242663 | 15.56° C | 80% | 1013.8 hPa | 0 mm | - | 32 W/m² | - |
* Rain latest hour (hover to see other rain measurements)
** Current wind speed in m/s (hover to see current wind gust speed)